Home   Weather   Tucumán   Past weeks

Flag for Argentina Past Weather in Tucumán, Tucumán, Argentina — Yesterday and Last 2 Weeks

Now
66 °F

Sunny.


Feels Like: 66 °F
Forecast: 59 / 83 °F
Wind: 2 mph from South

Location: Tucuman Aerodrome

Current Time: Dec 10, 2016 at 9:54:50 am

Latest Report: Dec 10, 2016 at 9:00 am


Visibility: 10 mi

Pressure: 29.92 "Hg

Humidity: 83%

Dew Point: 61 °F

Location of TucumánLocation

Past Weather in Tucumán — Graph

°F

Tucumán Temperature Yesterday

Maximum temperature yesterday: 66 °F (at 1:00 pm)
Minimum temperature yesterday: 61 °F (at 1:00 am)
Average temperature yesterday: 63 °F

High & Low Weather Summary for the Past Weeks

 TemperatureHumidityPressure
High99 °F (Nov 26, 2:00 pm)100% (Nov 27, 12:00 am)30.27 "Hg (Nov 27, 12:00 am)
Low61 °F (Dec 9, 1:00 am)38% (Dec 3, 6:00 pm)29.53 "Hg (Nov 26, 5:00 pm)
Average75 °F78%29.89 "Hg
* Reported Nov 25 9:00 am — Dec 10 9:00 am, Tucumán, Weather by CustomWeather, © 2016

Note: Actual official high and low records may vary slightly from our data, if they occured in-between our weather recording intervals... More about our weather records

Advertising

Tucumán Weather History for the Previous 24 Hours

Scroll right to see more
 ConditionsComfort  
Time TempWeatherWind HumidityBarometerVisibility
9:00 am
Sat, Dec 10
66 °FSunny.2 mph83%29.92 "Hg10 mi
8:00 am63 °FSunny.5 mph88%29.89 "Hg10 mi
7:00 am61 °FSunny.5 mph88%29.89 "Hg10 mi
6:00 am61 °FPassing clouds.6 mph94%29.89 "Hg4 mi
5:00 am61 °FPassing clouds.2 mph94%29.92 "Hg5 mi
4:00 am61 °FPassing clouds.6 mph94%29.92 "Hg5 mi
3:00 am61 °FFog.5 mph94%29.95 "Hg3 mi
2:00 am61 °FDrizzle. Fog.7 mph94%29.95 "Hg2 mi
1:00 am61 °FDrizzle. Fog.7 mph94%29.98 "Hg2 mi
12:00 am61 °FDrizzle. Fog.5 mph100%29.98 "Hg2 mi
11:00 pm
Fri, Dec 9
61 °FDrizzle. Mostly cloudy.9 mph94%29.98 "Hg3 mi
10:00 pm61 °FDrizzle. Mostly cloudy.6 mph94%29.92 "Hg3 mi
9:00 pm63 °FDrizzle. Overcast.15 mph94%29.89 "Hg2 mi
8:00 pm63 °FDrizzle. Cloudy.8 mph94%29.86 "Hg3 mi
7:00 pm64 °FDrizzle. Cloudy.10 mph94%29.83 "Hg3 mi
6:00 pm64 °FDrizzle. Cloudy.6 mph94%29.83 "Hg3 mi
5:00 pm66 °FFog.9 mph88%29.80 "Hg2 mi
4:00 pm64 °FDrizzle. Cloudy.6 mph94%29.83 "Hg3 mi
3:00 pm66 °FDrizzle. Cloudy.8 mph88%29.83 "Hg3 mi
2:00 pm66 °FMostly cloudy.10 mph88%29.86 "HgN/A
1:00 pm66 °FDrizzle. Mostly cloudy.9 mph88%29.89 "Hg6 mi
12:00 pm64 °FDrizzle. Fog.7 mph94%29.92 "Hg3 mi
11:00 am64 °FDrizzle. Fog.6 mph94%29.92 "Hg1 mi
10:00 am63 °FDrizzle. Fog.9 mph94%29.92 "Hg1 mi
9:00 am63 °FDrizzle. Fog.5 mph94%29.92 "Hg2 mi
Weather by CustomWeather, © 2016

See weather overviewHow to use our weather pages